This is the latest recevied weather packets stored in our database for station/object KV9E. If no packets are shown the sender has not sent any weather packets the latest 1 day(s).
| Time | Temp. | Humidity | Pressure | Rain* | Wind** | Luminosity | Snow |
|---|---|---|---|---|---|---|---|
| 1778103762 | 10.56° C | 99% | 1012.4 hPa | 0 mm | - | 18 W/m² | - |
| 1778102544 | 10.56° C | 99% | 1011.9 hPa | 0 mm | - | 31 W/m² | - |
| 1778101633 | 10.56° C | 99% | 1012.3 hPa | 0 mm | - | 35 W/m² | - |
| 1778101330 | 10.56° C | 99% | 1012.6 hPa | 0 mm | - | 25 W/m² | - |
| 1778100723 | 10.56° C | 99% | 1012 hPa | 0 mm | - | 48 W/m² | - |
| 1778099815 | 11.11° C | 99% | 1012.2 hPa | 0 mm | - | 38 W/m² | - |
| 1778099512 | 11.11° C | 99% | 1011.9 hPa | 0 mm | - | 38 W/m² | - |
| 1778097389 | 11.67° C | 99% | 1012 hPa | 0 mm | - | 76 W/m² | - |
| 1778096479 | 12.22° C | 99% | 1011.7 hPa | 0 mm | - | 102 W/m² | - |
| 1778096177 | 12.22° C | 99% | 1011.8 hPa | 0 mm | - | 100 W/m² | - |
| 1778095874 | 12.22° C | 99% | 1012.1 hPa | 0 mm | - | 89 W/m² | - |
| 1778094958 | 12.78° C | 99% | 1012.5 hPa | 3.05 mm | - | 55 W/m² | - |
| 1778093442 | 13.33° C | 99% | 1012.4 hPa | 0 mm | - | 53 W/m² | - |
| 1778092837 | 13.89° C | 99% | 1012.1 hPa | 0 mm | - | 38 W/m² | - |
| 1778089497 | 13.89° C | 99% | 1011.9 hPa | 0 mm | - | 157 W/m² | - |
| 1778088587 | 13.33° C | 99% | 1012.1 hPa | 0 mm | - | 74 W/m² | - |
| 1778088285 | 13.33° C | 99% | 1011.9 hPa | 0 mm | - | 142 W/m² | - |
| 1778087376 | 13.33° C | 99% | 1012.3 hPa | 0 mm | - | 119 W/m² | - |
| 1778086765 | 13.33° C | 99% | 1012.4 hPa | 0 mm | - | 130 W/m² | - |
| 1778085849 | 13.33° C | 99% | 1011.8 hPa | 0 mm | - | 190 W/m² | - |
| 1778085548 | 13.33° C | 99% | 1011.9 hPa | 0 mm | - | 211 W/m² | - |
| 1778085242 | 13.33° C | 99% | 1011.9 hPa | 0 mm | - | 162 W/m² | - |
| 1778084937 | 13.33° C | 99% | 1011.8 hPa | 0 mm | - | 108 W/m² | - |
| 1778084332 | 13.33° C | 99% | 1012.1 hPa | 0 mm | - | 138 W/m² | - |
| 1778083721 | 13.33° C | 99% | 1012.1 hPa | 0 mm | - | 60 W/m² | - |
* Rain latest hour (hover to see other rain measurements)
** Current wind speed in m/s (hover to see current wind gust speed)